User: anonymous   Login
Location: Unspecified
(0.0000°N, 0.0000°E)
Time: 18:21:12
(UTC+00:00)
Language:

Explorer 11/Cluster Stage 4 - Orbit

View from above orbital plane
View from above orbital plane
View from above satellite
View from above satellite

Ground track
Ground track

The orbit data is extracted from the following two-line orbital elements,

1   107U 61013A   17080.27433319 +.00000728 +00000-0 +81119-4 0  9998
2   107 028.7878 026.0855 0549715 072.1812 293.7938 14.08249679798665
Epoch (UTC): 21 March 2017 06:35:02
Eccentricity: 0.0549715
inclination: 28.7878°
perigee height: 467 km
apogee height: 1263 km
right ascension of ascending node: 26.0855°
argument of perigee: 72.1812°
revolutions per day: 14.08249679
mean anomaly at epoch: 293.7938°
orbit number at epoch: 79866

The dashed part of the orbit path shows where the satellite is in the earth's shadow,  

DLR